owner,sensor,date,latitude,longitude,vertical_datum,wind_speed,wind_to_direction,wind_speed_of_gust,qcFlag 
TABS,ioos:station:wmo:42045:1,2014-09-01T00:00:00Z,26.2168,-96.4998,4.0,6.368327881,116.4849386,7.62,'11111222,11111222,11111222' 
TABS,ioos:station:wmo:42045:1,2014-09-01T00:30:00Z,26.2168,-96.4998,4.0,6.40859579,116.4054784,8.02,'11111222,11111222,11111222' 
TABS,ioos:station:wmo:42045:1,2014-09-01T01:00:00Z,26.2168,-96.4998,4.0,6.684968212,122.7870677,7.93,'11111222,11111222,11111222' 
TABS,ioos:station:wmo:42045:1,2014-09-01T01:30:00Z,26.2168,-96.4998,4.0,7.146817474,130.8016198,8.62,'11111222,11111222,11111222' 
TABS,ioos:station:wmo:42045:1,2014-09-01T02:00:00Z,26.2168,-96.4998,4.0,6.71315872,133.3706368,8.03,'11111222,11111222,11111222' 
TABS,ioos:station:wmo:42045:1,2014-09-01T02:30:00Z,26.2168,-96.4998,4.0,6.160422063,138.0269223,7.44,'11111222,11111222,11111222' 
TABS,ioos:station:wmo:42045:1,2014-09-01T03:00:00Z,26.2168,-96.4998,4.0,6.860685097,138.9008003,8.16,'11111222,11111222,11111222' 
TABS,ioos:station:wmo:42045:1,2014-09-01T03:30:00Z,26.2168,-96.4998,4.0,6.951560976,139.5509882,8.47,'11111222,11111222,11111222' 
TABS,ioos:station:wmo:42045:1,2014-09-01T04:00:00Z,26.2168,-96.4998,4.0,6.808009988,140.7227383,8.12,'11111222,11111222,11111222' 
TABS,ioos:station:wmo:42045:1,2014-09-01T04:30:00Z,26.2168,-96.4998,4.0,6.546548709,137.4145941,7.69,'11111222,11111222,11111222' 
TABS,ioos:station:wmo:42045:1,2014-09-01T05:00:00Z,26.2168,-96.4998,4.0,6.752095971,142.8249157,7.84,'11111222,11111222,11111222' 
TABS,ioos:station:wmo:42045:1,2014-09-01T05:30:00Z,26.2168,-96.4998,4.0,6.468052257,143.3607142,7.98,'11111222,11111222,11111222' 
TABS,ioos:station:wmo:42045:1,2014-09-01T06:00:00Z,26.2168,-96.4998,4.0,6.77800118,143.0965863,8.05,'11111222,11111222,11111222' 
TABS,ioos:station:wmo:42045:1,2014-09-01T06:30:00Z,26.2168,-96.4998,4.0,6.218046317,142.9092526,7.73,'11111222,11111222,11111222' 
TABS,ioos:station:wmo:42045:1,2014-09-01T07:00:00Z,26.2168,-96.4998,4.0,5.654423047,148.6715909,6.68,'11111222,11111222,11111222' 
TABS,ioos:station:wmo:42045:1,2014-09-01T07:30:00Z,26.2168,-96.4998,4.0,5.902270749,145.7717447,7.01,'11111222,11111222,11111222' 
TABS,ioos:station:wmo:42045:1,2014-09-01T08:00:00Z,26.2168,-96.4998,4.0,6.004240168,144.6955687,7.08,'11111222,11111222,11111222' 
TABS,ioos:station:wmo:42045:1,2014-09-01T08:30:00Z,26.2168,-96.4998,4.0,5.580439051,145.8830752,6.54,'11111222,11111222,11111222' 
TABS,ioos:station:wmo:42045:1,2014-09-01T09:00:00Z,26.2168,-96.4998,4.0,5.445410912,149.6681063,6.68,'11111222,11111222,11111222' 
TABS,ioos:station:wmo:42045:1,2014-09-01T09:30:00Z,26.2168,-96.4998,4.0,5.452017975,149.3429172,6.94,'11111222,11111222,11111222' 
TABS,ioos:station:wmo:42045:1,2014-09-01T10:00:00Z,26.2168,-96.4998,4.0,5.323326028,149.1472781,6.29,'11111222,11111222,11111222' 
TABS,ioos:station:wmo:42045:1,2014-09-01T10:30:00Z,26.2168,-96.4998,4.0,4.763034747,152.8972499,5.45,'11111222,11111222,11111222' 
TABS,ioos:station:wmo:42045:1,2014-09-01T11:00:00Z,26.2168,-96.4998,4.0,4.928458177,152.9673,5.61,'11111222,11111222,11111222' 
TABS,ioos:station:wmo:42045:1,2014-09-01T11:30:00Z,26.2168,-96.4998,4.0,5.519601435,149.9978919,6.45,'11111222,11111222,11111222' 
TABS,ioos:station:wmo:42045:1,2014-09-01T12:00:00Z,26.2168,-96.4998,4.0,5.390704963,149.8203504,6.38,'11111222,11111222,11111222' 
TABS,ioos:station:wmo:42045:1,2014-09-01T12:30:00Z,26.2168,-96.4998,4.0,5.254807323,148.699937,6.13,'11111222,11111222,11111222' 
TABS,ioos:station:wmo:42045:1,2014-09-01T13:00:00Z,26.2168,-96.4998,4.0,5.076071315,152.930427,6.03,'11111222,11111222,11111222' 
TABS,ioos:station:wmo:42045:1,2014-09-01T13:30:00Z,26.2168,-96.4998,4.0,5.103273459,144.4104102,6.03,'11111222,11111222,11111222' 
TABS,ioos:station:wmo:42045:1,2014-09-01T14:00:00Z,26.2168,-96.4998,4.0,4.859269492,139.5908481,5.92,'11111222,11111222,11111222' 
TABS,ioos:station:wmo:42045:1,2014-09-01T14:30:00Z,26.2168,-96.4998,4.0,5.784565671,134.2999148,6.5,'11111222,11111222,11111222' 
TABS,ioos:station:wmo:42045:1,2014-09-01T15:00:00Z,26.2168,-96.4998,4.0,5.408308423,141.4563081,6.39,'11111222,11111222,11111222' 
TABS,ioos:station:wmo:42045:1,2014-09-01T15:30:00Z,26.2168,-96.4998,4.0,5.970008375,133.5071654,7.04,'11111222,11111222,11111222' 
TABS,ioos:station:wmo:42045:1,2014-09-01T16:00:00Z,26.2168,-96.4998,4.0,5.597856733,129.4913789,6.58,'11111222,11111222,11111222' 
TABS,ioos:station:wmo:42045:1,2014-09-01T16:30:00Z,26.2168,-96.4998,4.0,5.644687768,124.5350017,6.74,'11111222,11111222,11111222' 
TABS,ioos:station:wmo:42045:1,2014-09-01T17:00:00Z,26.2168,-96.4998,4.0,5.547476904,128.1923638,6.64,'11111222,11111222,11111222' 
TABS,ioos:station:wmo:42045:1,2014-09-01T17:30:00Z,26.2168,-96.4998,4.0,5.851392997,131.5362831,6.71,'11111222,11111222,11111222' 
TABS,ioos:station:wmo:42045:1,2014-09-01T18:00:00Z,26.2168,-96.4998,4.0,5.57391245,128.3711747,6.81,'11111222,11111222,11111222' 
TABS,ioos:station:wmo:42045:1,2014-09-01T18:30:00Z,26.2168,-96.4998,4.0,6.108559568,132.4128176,6.9,'11111222,11111222,11111222' 
TABS,ioos:station:wmo:42045:1,2014-09-01T19:00:00Z,26.2168,-96.4998,4.0,5.431325805,129.8464192,6.51,'11111222,11111222,11111222' 
TABS,ioos:station:wmo:42045:1,2014-09-01T19:30:00Z,26.2168,-96.4998,4.0,5.635672098,132.1235573,6.66,'11111222,11111222,11111222' 
TABS,ioos:station:wmo:42045:1,2014-09-01T20:00:00Z,26.2168,-96.4998,4.0,5.537011829,134.3417741,6.59,'11111222,11111222,11111222' 
TABS,ioos:station:wmo:42045:1,2014-09-01T20:30:00Z,26.2168,-96.4998,4.0,5.678071856,135.0716676,6.55,'11111222,11111222,11111222' 
TABS,ioos:station:wmo:42045:1,2014-09-01T21:00:00Z,26.2168,-96.4998,4.0,6.56982496,117.0724378,7.92,'11111222,11111222,11111222' 
TABS,ioos:station:wmo:42045:1,2014-09-01T21:30:00Z,26.2168,-96.4998,4.0,4.378333016,116.1557443,5.44,'11111222,11111222,11111222' 
TABS,ioos:station:wmo:42045:1,2014-09-01T22:00:00Z,26.2168,-96.4998,4.0,4.695742753,116.56541,5.45,'11111222,11111222,11111222' 
TABS,ioos:station:wmo:42045:1,2014-09-01T22:30:00Z,26.2168,-96.4998,4.0,5.589203879,125.6810161,6.67,'11111222,11111222,11111222' 
TABS,ioos:station:wmo:42045:1,2014-09-01T23:00:00Z,26.2168,-96.4998,4.0,5.790379953,125.227442,6.74,'11111222,11111222,11111222' 
TABS,ioos:station:wmo:42045:1,2014-09-01T23:30:00Z,26.2168,-96.4998,4.0,5.336253367,119.1592446,6.67,'11111222,11111222,11111222' 
TABS,ioos:station:wmo:42045:1,2014-09-02T00:00:00Z,26.2168,-96.4998,4.0,6.170777909,119.5148996,7.83,'11111222,11111222,11111222' 
TABS,ioos:station:wmo:42045:1,2014-09-02T00:30:00Z,26.2168,-96.4998,4.0,5.831063368,110.2689072,7.19,'11111222,11111222,11111222' 
TABS,ioos:station:wmo:42045:1,2014-09-02T01:00:00Z,26.2168,-96.4998,4.0,6.314586289,120.8707391,7.61,'11111222,11111222,11111222' 
TABS,ioos:station:wmo:42045:1,2014-09-02T01:30:00Z,26.2168,-96.4998,4.0,6.426647649,116.1268297,7.92,'11111222,11111222,11111222' 
TABS,ioos:station:wmo:42045:1,2014-09-02T02:00:00Z,26.2168,-96.4998,4.0,5.943954912,124.3053183,7.68,'11111222,11111222,11111222' 
TABS,ioos:station:wmo:42045:1,2014-09-02T02:30:00Z,26.2168,-96.4998,4.0,6.692144649,126.493518,8.06,'11111222,11111222,11111222' 
TABS,ioos:station:wmo:42045:1,2014-09-02T03:00:00Z,26.2168,-96.4998,4.0,6.766010641,126.7686144,8.19,'11111222,11111222,11111222' 
TABS,ioos:station:wmo:42045:1,2014-09-02T03:30:00Z,26.2168,-96.4998,4.0,7.03651192,125.3392375,8.62,'11111222,11111222,11111222' 
TABS,ioos:station:wmo:42045:1,2014-09-02T04:00:00Z,26.2168,-96.4998,4.0,7.083784299,124.1839386,8.1,'11111222,11111222,11111222' 
TABS,ioos:station:wmo:42045:1,2014-09-02T04:30:00Z,26.2168,-96.4998,4.0,7.624021249,126.7349596,9.03,'11111222,11111222,11111222' 
TABS,ioos:station:wmo:42045:1,2014-09-02T05:00:00Z,26.2168,-96.4998,4.0,7.088081546,127.1450683,8.37,'11111222,11111222,11111222' 
TABS,ioos:station:wmo:42045:1,2014-09-02T05:30:00Z,26.2168,-96.4998,4.0,7.107756327,130.4354961,8.47,'11111222,11111222,11111222' 
TABS,ioos:station:wmo:42045:1,2014-09-02T06:00:00Z,26.2168,-96.4998,4.0,6.089811163,131.9385825,7.46,'11111222,11111222,11111222' 
TABS,ioos:station:wmo:42045:1,2014-09-02T06:30:00Z,26.2168,-96.4998,4.0,7.80877071,128.3965807,9.56,'11111222,11111222,11111222' 
TABS,ioos:station:wmo:42045:1,2014-09-02T07:00:00Z,26.2168,-96.4998,4.0,7.418119708,135.7103302,8.92,'11111222,11111222,11111222' 
TABS,ioos:station:wmo:42045:1,2014-09-02T07:30:00Z,26.2168,-96.4998,4.0,7.417715282,135.3826451,9.05,'11111222,11111222,11111222' 
TABS,ioos:station:wmo:42045:1,2014-09-02T08:00:00Z,26.2168,-96.4998,4.0,7.264248068,131.1491508,8.73,'11111222,11111222,11111222' 
TABS,ioos:station:wmo:42045:1,2014-09-02T08:30:00Z,26.2168,-96.4998,4.0,7.743545699,135.7851385,9.45,'11111222,11111222,11111222' 
TABS,ioos:station:wmo:42045:1,2014-09-02T09:00:00Z,26.2168,-96.4998,4.0,7.163581506,134.2650714,8.66,'11111222,11111222,11111222' 
TABS,ioos:station:wmo:42045:1,2014-09-02T09:30:00Z,26.2168,-96.4998,4.0,6.548786147,135.9902067,8.24,'11111222,11111222,11111222' 
TABS,ioos:station:wmo:42045:1,2014-09-02T10:00:00Z,26.2168,-96.4998,4.0,7.357288903,130.3144268,8.68,'11111222,11111222,11111222' 
TABS,ioos:station:wmo:42045:1,2014-09-02T10:30:00Z,26.2168,-96.4998,4.0,7.126570002,129.9911878,8.87,'11111222,11111222,11111222' 
TABS,ioos:station:wmo:42045:1,2014-09-02T11:00:00Z,26.2168,-96.4998,4.0,8.301048127,129.2314593,9.97,'11111222,11111222,11111222' 
TABS,ioos:station:wmo:42045:1,2014-09-02T11:30:00Z,26.2168,-96.4998,4.0,9.124280794,144.4115176,11.22,'11111222,11111222,11111222' 
TABS,ioos:station:wmo:42045:1,2014-09-02T12:00:00Z,26.2168,-96.4998,4.0,8.072570842,142.4490161,9.72,'11111222,11111222,11111222' 
TABS,ioos:station:wmo:42045:1,2014-09-02T12:30:00Z,26.2168,-96.4998,4.0,6.540925011,134.5667353,8.19,'11111222,11111222,11111222' 
TABS,ioos:station:wmo:42045:1,2014-09-02T13:00:00Z,26.2168,-96.4998,4.0,9.01608008,134.416145,10.59,'11111222,11111222,11111222' 
TABS,ioos:station:wmo:42045:1,2014-09-02T13:30:00Z,26.2168,-96.4998,4.0,7.655638445,128.6367623,9.17,'11111222,11111222,11111222' 
TABS,ioos:station:wmo:42045:1,2014-09-02T14:00:00Z,26.2168,-96.4998,4.0,7.657630182,141.9481332,9.28,'11111222,11111222,11111222' 
TABS,ioos:station:wmo:42045:1,2014-09-02T14:30:00Z,26.2168,-96.4998,4.0,7.632889361,132.0265916,9.03,'11111222,11111222,11111222' 
TABS,ioos:station:wmo:42045:1,2014-09-02T15:00:00Z,26.2168,-96.4998,4.0,8.32627768,127.3381662,10.07,'11111222,11111222,11111222' 
TABS,ioos:station:wmo:42045:1,2014-09-02T15:30:00Z,26.2168,-96.4998,4.0,7.732994245,125.9514466,9.67,'11111222,11111222,11111222' 
TABS,ioos:station:wmo:42045:1,2014-09-02T16:00:00Z,26.2168,-96.4998,4.0,8.0827285,120.976262,9.94,'11111222,11111222,11111222' 
TABS,ioos:station:wmo:42045:1,2014-09-02T16:30:00Z,26.2168,-96.4998,4.0,7.470809862,127.7138823,9.1,'11111222,11111222,11111222' 
TABS,ioos:station:wmo:42045:1,2014-09-02T17:00:00Z,26.2168,-96.4998,4.0,7.505604573,133.3267437,9.27,'11111222,11111222,11111222' 
TABS,ioos:station:wmo:42045:1,2014-09-02T17:30:00Z,26.2168,-96.4998,4.0,6.533743184,129.6599374,8.14,'11111222,11111222,11111222' 
TABS,ioos:station:wmo:42045:1,2014-09-02T18:00:00Z,26.2168,-96.4998,4.0,6.137833494,123.9752027,8.2,'11111222,11111222,11111222' 
TABS,ioos:station:wmo:42045:1,2014-09-02T18:30:00Z,26.2168,-96.4998,4.0,8.817488305,144.7421045,11.3,'11111222,11111222,11111222' 
TABS,ioos:station:wmo:42045:1,2014-09-02T19:00:00Z,26.2168,-96.4998,4.0,10.61577129,149.1105756,12.54,'11111222,11111222,11111222' 
TABS,ioos:station:wmo:42045:1,2014-09-02T19:30:00Z,26.2168,-96.4998,4.0,9.336744615,140.6504479,11.19,'11111222,11111222,11111222' 
TABS,ioos:station:wmo:42045:1,2014-09-02T20:00:00Z,26.2168,-96.4998,4.0,10.08202857,143.2667899,12.11,'11111222,11111222,11111222' 
TABS,ioos:station:wmo:42045:1,2014-09-02T20:30:00Z,26.2168,-96.4998,4.0,9.348780669,140.9480628,11.63,'11111222,11111222,11111222' 
TABS,ioos:station:wmo:42045:1,2014-09-02T21:00:00Z,26.2168,-96.4998,4.0,8.620980223,130.2483933,10.34,'11111222,11111222,11111222' 
TABS,ioos:station:wmo:42045:1,2014-09-02T21:30:00Z,26.2168,-96.4998,4.0,9.856216313,128.905262,12.43,'11111222,11111222,11111222' 
TABS,ioos:station:wmo:42045:1,2014-09-02T22:00:00Z,26.2168,-96.4998,4.0,9.640876516,126.0976201,11.32,'11111222,11111222,11111222' 
TABS,ioos:station:wmo:42045:1,2014-09-02T22:30:00Z,26.2168,-96.4998,4.0,8.74276844,128.3121523,10.24,'11111222,11111222,11111222' 
TABS,ioos:station:wmo:42045:1,2014-09-02T23:00:00Z,26.2168,-96.4998,4.0,7.940132241,128.1980871,9.58,'11111222,11111222,11111222' 
TABS,ioos:station:wmo:42045:1,2014-09-02T23:30:00Z,26.2168,-96.4998,4.0,8.559889018,141.4032136,10.42,'11111222,11111222,11111222' 
TABS,ioos:station:wmo:42045:1,2014-09-03T00:00:00Z,26.2168,-96.4998,4.0,8.103511584,130.8470295,10.32,'11111222,11111222,11111222' 
TABS,ioos:station:wmo:42045:1,2014-09-03T00:30:00Z,26.2168,-96.4998,4.0,7.020256406,142.6407046,11.27,'11111222,11111222,11111222' 
TABS,ioos:station:wmo:42045:1,2014-09-03T01:00:00Z,26.2168,-96.4998,4.0,8.691864012,133.9281871,11.07,'11111222,11111222,11111222' 
TABS,ioos:station:wmo:42045:1,2014-09-03T01:30:00Z,26.2168,-96.4998,4.0,7.050177303,127.2765776,8.76,'11111222,11111222,11111222' 
TABS,ioos:station:wmo:42045:1,2014-09-03T02:00:00Z,26.2168,-96.4998,4.0,6.846787568,104.1178156,8.45,'11111222,11111222,11111222' 
TABS,ioos:station:wmo:42045:1,2014-09-03T02:30:00Z,26.2168,-96.4998,4.0,9.9061597,149.5523319,15.57,'11111222,11111222,11111222' 
TABS,ioos:station:wmo:42045:1,2014-09-03T03:00:00Z,26.2168,-96.4998,4.0,7.181399585,133.0253863,12.76,'11111222,11111222,11111222' 
TABS,ioos:station:wmo:42045:1,2014-09-03T03:30:00Z,26.2168,-96.4998,4.0,7.057031954,132.4160074,8.69,'11111222,11111222,11111222' 
TABS,ioos:station:wmo:42045:1,2014-09-03T04:00:00Z,26.2168,-96.4998,4.0,7.180926124,136.8624738,9.2,'11111222,11111222,11111222' 
TABS,ioos:station:wmo:42045:1,2014-09-03T04:30:00Z,26.2168,-96.4998,4.0,6.789418237,136.0744832,8.02,'11111222,11111222,11111222' 
TABS,ioos:station:wmo:42045:1,2014-09-03T05:00:00Z,26.2168,-96.4998,4.0,5.724089447,127.1905401,6.95,'11111222,11111222,11111222' 
TABS,ioos:station:wmo:42045:1,2014-09-03T05:30:00Z,26.2168,-96.4998,4.0,5.503835027,94.06377741,7.4,'11111222,11111222,11111222' 
TABS,ioos:station:wmo:42045:1,2014-09-03T06:00:00Z,26.2168,-96.4998,4.0,5.359561549,111.1069598,7.94,'11111222,11111222,11111222' 
TABS,ioos:station:wmo:42045:1,2014-09-03T06:30:00Z,26.2168,-96.4998,4.0,5.967419878,128.8100878,7.53,'11111222,11111222,11111222' 
TABS,ioos:station:wmo:42045:1,2014-09-03T07:00:00Z,26.2168,-96.4998,4.0,11.91053735,164.0152055,14.71,'11111222,11111222,11111222' 
TABS,ioos:station:wmo:42045:1,2014-09-03T07:30:00Z,26.2168,-96.4998,4.0,6.650481186,151.2385515,9.91,'11111222,11111222,11111222' 
TABS,ioos:station:wmo:42045:1,2014-09-03T08:00:00Z,26.2168,-96.4998,4.0,9.272761185,133.6457512,11.37,'11111222,11111222,11111222' 
TABS,ioos:station:wmo:42045:1,2014-09-03T08:30:00Z,26.2168,-96.4998,4.0,7.352781787,123.2365495,9.23,'11111222,11111222,11111222' 
TABS,ioos:station:wmo:42045:1,2014-09-03T09:00:00Z,26.2168,-96.4998,4.0,9.335619958,133.871911,11.03,'11111222,11111222,11111222' 
TABS,ioos:station:wmo:42045:1,2014-09-03T09:30:00Z,26.2168,-96.4998,4.0,9.489625915,139.4448525,11.39,'11111222,11111222,11111222' 
TABS,ioos:station:wmo:42045:1,2014-09-03T10:00:00Z,26.2168,-96.4998,4.0,8.556710817,129.7373122,10.5,'11111222,11111222,11111222' 
TABS,ioos:station:wmo:42045:1,2014-09-03T10:30:00Z,26.2168,-96.4998,4.0,8.628168983,127.2288235,10.8,'11111222,11111222,11111222' 
TABS,ioos:station:wmo:42045:1,2014-09-03T11:00:00Z,26.2168,-96.4998,4.0,8.323460819,125.2179315,9.81,'11111222,11111222,11111222' 
TABS,ioos:station:wmo:42045:1,2014-09-03T11:30:00Z,26.2168,-96.4998,4.0,8.51225587,127.3144801,10.06,'11111222,11111222,11111222' 
TABS,ioos:station:wmo:42045:1,2014-09-03T12:00:00Z,26.2168,-96.4998,4.0,8.413067217,125.9576114,10.33,'11111222,11111222,11111222' 
TABS,ioos:station:wmo:42045:1,2014-09-03T12:30:00Z,26.2168,-96.4998,4.0,8.036143354,127.2124621,9.72,'11111222,11111222,11111222' 
TABS,ioos:station:wmo:42045:1,2014-09-03T13:00:00Z,26.2168,-96.4998,4.0,8.586436979,128.7122447,10.23,'11111222,11111222,11111222' 
TABS,ioos:station:wmo:42045:1,2014-09-03T13:30:00Z,26.2168,-96.4998,4.0,8.789323068,123.9616082,11.52,'11111222,11111222,11111222' 
TABS,ioos:station:wmo:42045:1,2014-09-03T14:00:00Z,26.2168,-96.4998,4.0,8.844122342,128.6196686,10.67,'11111222,11111222,11111222' 
TABS,ioos:station:wmo:42045:1,2014-09-03T14:30:00Z,26.2168,-96.4998,4.0,8.852734041,126.1323943,10.91,'11111222,11111222,11111222' 
TABS,ioos:station:wmo:42045:1,2014-09-03T15:00:00Z,26.2168,-96.4998,4.0,9.222499661,129.8536254,11.06,'11111222,11111222,11111222' 
TABS,ioos:station:wmo:42045:1,2014-09-03T15:30:00Z,26.2168,-96.4998,4.0,8.977527499,132.1108739,10.77,'11111222,11111222,11111222' 
TABS,ioos:station:wmo:42045:1,2014-09-03T16:00:00Z,26.2168,-96.4998,4.0,8.866025039,131.8914662,11.14,'11111222,11111222,11111222' 
TABS,ioos:station:wmo:42045:1,2014-09-03T16:30:00Z,26.2168,-96.4998,4.0,8.154434376,130.7235585,10.37,'11111222,11111222,11111222' 
TABS,ioos:station:wmo:42045:1,2014-09-03T17:00:00Z,26.2168,-96.4998,4.0,8.359198526,135.9696927,9.71,'11111222,11111222,11111222' 
TABS,ioos:station:wmo:42045:1,2014-09-03T17:30:00Z,26.2168,-96.4998,4.0,9.798622352,169.3554362,12.75,'11111222,11111222,11111222' 
TABS,ioos:station:wmo:42045:1,2014-09-03T18:00:00Z,26.2168,-96.4998,4.0,7.605313932,156.6038309,9.76,'11111222,11111222,11111222' 
TABS,ioos:station:wmo:42045:1,2014-09-03T18:30:00Z,26.2168,-96.4998,4.0,8.291742881,119.8737941,11.22,'11111222,11111222,11111222' 
TABS,ioos:station:wmo:42045:1,2014-09-03T19:00:00Z,26.2168,-96.4998,4.0,7.026841396,111.4535279,8.34,'11111222,11111222,11111222' 
TABS,ioos:station:wmo:42045:1,2014-09-03T19:30:00Z,26.2168,-96.4998,4.0,5.652910755,118.8777546,7.54,'11111222,11111222,11111222' 
TABS,ioos:station:wmo:42045:1,2014-09-03T20:00:00Z,26.2168,-96.4998,4.0,5.47288772,121.6284247,6.6,'11111222,11111222,11111222' 
TABS,ioos:station:wmo:42045:1,2014-09-03T20:30:00Z,26.2168,-96.4998,4.0,4.63061551,120.497262,5.92,'11111222,11111222,11111222' 
TABS,ioos:station:wmo:42045:1,2014-09-03T21:00:00Z,26.2168,-96.4998,4.0,3.910626548,125.8445887,4.69,'11111222,11111222,11111222' 
TABS,ioos:station:wmo:42045:1,2014-09-03T21:30:00Z,26.2168,-96.4998,4.0,2.920308203,116.6531521,3.69,'11111222,11111222,11111222' 
TABS,ioos:station:wmo:42045:1,2014-09-03T22:00:00Z,26.2168,-96.4998,4.0,3.413971295,113.1108101,4.34,'11111222,11111222,11111222' 
TABS,ioos:station:wmo:42045:1,2014-09-03T22:30:00Z,26.2168,-96.4998,4.0,4.272352982,118.0649535,5.16,'11111222,11111222,11111222' 
TABS,ioos:station:wmo:42045:1,2014-09-03T23:00:00Z,26.2168,-96.4998,4.0,7.280638708,116.6006039,9.3,'11111222,11111222,11111222' 
TABS,ioos:station:wmo:42045:1,2014-09-03T23:30:00Z,26.2168,-96.4998,4.0,8.117049957,120.8309441,9.68,'11111222,11111222,11111222' 
TABS,ioos:station:wmo:42045:1,2014-09-04T00:00:00Z,26.2168,-96.4998,4.0,7.868780083,119.6278237,10.09,'11111222,11111222,11111222' 
TABS,ioos:station:wmo:42045:1,2014-09-04T00:30:00Z,26.2168,-96.4998,4.0,7.71002594,116.3327723,9.14,'11111222,11111222,11111222' 
TABS,ioos:station:wmo:42045:1,2014-09-04T01:00:00Z,26.2168,-96.4998,4.0,7.569233779,119.0034917,8.83,'11111222,11111222,11111222' 
TABS,ioos:station:wmo:42045:1,2014-09-04T01:30:00Z,26.2168,-96.4998,4.0,7.383908179,120.0724678,8.62,'11111222,11111222,11111222' 
TABS,ioos:station:wmo:42045:1,2014-09-04T02:00:00Z,26.2168,-96.4998,4.0,7.102281324,119.5250968,8.77,'11111222,11111222,11111222' 
TABS,ioos:station:wmo:42045:1,2014-09-04T02:30:00Z,26.2168,-96.4998,4.0,6.759534008,122.9851234,8.15,'11111222,11111222,11111222' 
TABS,ioos:station:wmo:42045:1,2014-09-04T03:00:00Z,26.2168,-96.4998,4.0,6.614083459,128.3083872,7.96,'11111222,11111222,11111222' 
TABS,ioos:station:wmo:42045:1,2014-09-04T03:30:00Z,26.2168,-96.4998,4.0,6.271084436,124.1465352,7.68,'11111222,11111222,11111222' 
TABS,ioos:station:wmo:42045:1,2014-09-04T04:00:00Z,26.2168,-96.4998,4.0,5.955543636,122.7297902,7.24,'11111222,11111222,11111222' 
TABS,ioos:station:wmo:42045:1,2014-09-04T04:30:00Z,26.2168,-96.4998,4.0,6.436536336,129.4525784,8.4,'11111222,11111222,11111222' 
TABS,ioos:station:wmo:42045:1,2014-09-04T05:00:00Z,26.2168,-96.4998,4.0,6.295371315,128.7454212,8.06,'11111222,11111222,11111222' 
TABS,ioos:station:wmo:42045:1,2014-09-04T05:30:00Z,26.2168,-96.4998,4.0,6.357247832,130.2790244,7.79,'11111222,11111222,11111222' 
TABS,ioos:station:wmo:42045:1,2014-09-04T06:00:00Z,26.2168,-96.4998,4.0,6.036132868,132.7848246,7.42,'11111222,11111222,11111222' 
TABS,ioos:station:wmo:42045:1,2014-09-04T06:30:00Z,26.2168,-96.4998,4.0,7.532237383,121.0945594,9.23,'11111222,11111222,11111222' 
TABS,ioos:station:wmo:42045:1,2014-09-04T07:00:00Z,26.2168,-96.4998,4.0,6.577453915,130.2520308,8.52,'11111222,11111222,11111222' 
TABS,ioos:station:wmo:42045:1,2014-09-04T07:30:00Z,26.2168,-96.4998,4.0,7.618044368,132.1272941,8.79,'11111222,11111222,11111222' 
TABS,ioos:station:wmo:42045:1,2014-09-04T08:00:00Z,26.2168,-96.4998,4.0,7.363103965,136.3760274,8.79,'11111222,11111222,11111222' 
TABS,ioos:station:wmo:42045:1,2014-09-04T08:30:00Z,26.2168,-96.4998,4.0,6.872124853,132.5824713,8.55,'11111222,11111222,11111222' 
TABS,ioos:station:wmo:42045:1,2014-09-04T09:00:00Z,26.2168,-96.4998,4.0,7.473526611,137.3862541,9.28,'11111222,11111222,11111222' 
TABS,ioos:station:wmo:42045:1,2014-09-04T09:30:00Z,26.2168,-96.4998,4.0,6.828594292,137.196068,8.72,'11111222,11111222,11111222' 
TABS,ioos:station:wmo:42045:1,2014-09-04T10:00:00Z,26.2168,-96.4998,4.0,6.618798985,140.9484332,8.24,'11111222,11111222,11111222' 
TABS,ioos:station:wmo:42045:1,2014-09-04T10:30:00Z,26.2168,-96.4998,4.0,7.103914414,137.0538614,8.48,'11111222,11111222,11111222' 
TABS,ioos:station:wmo:42045:1,2014-09-04T11:00:00Z,26.2168,-96.4998,4.0,7.962135392,134.6950132,9.46,'11111222,11111222,11111222' 
TABS,ioos:station:wmo:42045:1,2014-09-04T11:30:00Z,26.2168,-96.4998,4.0,7.60479454,138.8923445,9.67,'11111222,11111222,11111222' 
TABS,ioos:station:wmo:42045:1,2014-09-04T12:00:00Z,26.2168,-96.4998,4.0,7.551033042,141.5063947,9.24,'11111222,11111222,11111222' 
TABS,ioos:station:wmo:42045:1,2014-09-04T12:30:00Z,26.2168,-96.4998,4.0,7.131689842,139.0940178,8.87,'11111222,11111222,11111222' 
TABS,ioos:station:wmo:42045:1,2014-09-04T13:00:00Z,26.2168,-96.4998,4.0,6.264902234,140.440635,7.64,'11111222,11111222,11111222' 
TABS,ioos:station:wmo:42045:1,2014-09-04T13:30:00Z,26.2168,-96.4998,4.0,7.575671587,137.8894205,9.52,'11111222,11111222,11111222' 
TABS,ioos:station:wmo:42045:1,2014-09-04T14:00:00Z,26.2168,-96.4998,4.0,6.971549326,149.3888936,8.52,'11111222,11111222,11111222' 
TABS,ioos:station:wmo:42045:1,2014-09-04T14:30:00Z,26.2168,-96.4998,4.0,7.47246278,149.5230739,9.03,'11111222,11111222,11111222' 
TABS,ioos:station:wmo:42045:1,2014-09-04T15:00:00Z,26.2168,-96.4998,4.0,6.693287682,145.4080027,7.94,'11111222,11111222,11111222' 
TABS,ioos:station:wmo:42045:1,2014-09-04T15:30:00Z,26.2168,-96.4998,4.0,7.108487884,146.243157,8.16,'11111222,11111222,11111222' 
TABS,ioos:station:wmo:42045:1,2014-09-04T16:00:00Z,26.2168,-96.4998,4.0,6.380219432,145.2142648,7.44,'11111222,11111222,11111222' 
TABS,ioos:station:wmo:42045:1,2014-09-04T16:30:00Z,26.2168,-96.4998,4.0,6.199556436,152.3192136,7.66,'11111222,11111222,11111222' 
TABS,ioos:station:wmo:42045:1,2014-09-04T17:00:00Z,26.2168,-96.4998,4.0,6.195885732,151.9876251,7.2,'11111222,11111222,11111222' 
TABS,ioos:station:wmo:42045:1,2014-09-04T17:30:00Z,26.2168,-96.4998,4.0,5.631411901,145.1249637,6.85,'11111222,11111222,11111222' 
TABS,ioos:station:wmo:42045:1,2014-09-04T18:00:00Z,26.2168,-96.4998,4.0,6.040298006,148.6786366,7.26,'11111222,11111222,11111222' 
TABS,ioos:station:wmo:42045:1,2014-09-04T18:30:00Z,26.2168,-96.4998,4.0,6.268907401,145.3976249,7.49,'11111222,11111222,11111222' 